Torna al catalogo

KUIPER-00383

AttivoComunicazioniLEO
NORAD 69268·PAYLOAD·🇺🇸 United States

Lanciato May 29, 2026 da Vandenberg Space Force Base

Loading…

Prossimi Passaggi (prossime 24 ore)

TLE

AggiornatoSource: CelesTrak SupGP

Epoca: Sep 14, 2026, 20:47 UTC

1 69268C 26118B   26257.86640046  .00005084  00000+0  66582-3 0  2578
2 69268  51.8988   1.6009 0000446 100.7667 231.4652 14.79910245    15

Traccia KUIPER-00383 in tempo reale con AllMySat

Download on the App Store